#timestamp,LO_Frequency,Hit,StdDev 
1618113615.9,286046999.3,N
1618113635.7,286046999.3,N
1618113655.6,286046997.3,N
1618113675.4,286046997.5,N
1618113695.2,286046997.6,N
1618113715.1,286046998.3,N
1618113716.0,286046998.3,N
1618113735.8,286046999.1,N
1618113755.7,286047000.5,N
1618113775.5,286047000.5,N
1618113795.3,286047000.3,N
1618113815.2,286046996.8,N
1618113835.0,286046996.9,N
1618113835.9,286046996.9,N
1618113855.7,286046999.1,N
1618113875.6,286046999.2,N
1618113895.4,286046997.2,N
1618113915.3,286046998.6,N
1618113935.1,286046997.5,N
1618113955.8,286046998.7,N
1618113975.7,286046999.5,N
1618113995.5,286046996.6,N
1618114015.4,286047002.5,N
1618114035.2,286047001.1,N
1618114055.0,286046999.1,N
1618114055.9,286046999.1,N
1618114075.8,286046997.7,N
1618114095.6,286046997.2,N
1618114115.5,286046995.3,Y
1618114135.3,286046998.7,P
1618114155.1,286047000.5,P
1618114175.9,286047000.7,N
1618114195.7,286047000.8,N
1618114215.5,286047000.6,N
1618114235.4,286047001.5,N
1618114255.2,286047001.6,N
1618114275.1,286047002.8,N
1618114276.0,286047002.8,N
1618114295.8,286046998.2,N
1618114315.6,286046998.9,N
1618114335.5,286047002.0,N
1618114355.3,286047002.0,N
1618114375.2,286047006.0,Y
1618114395.9,286047005.5,P
1618114415.7,286047003.7,N
1618114435.6,286047003.4,N
1618114455.4,286047002.6,N
1618114475.2,286047000.8,N
1618114495.1,286046998.4,N
1618114496.0,286046998.4,N
1618114515.8,286047002.8,N
1618114535.7,286047000.3,N
1618114585.5,286047000.7,E
1618114595.4,286046999.2,N
1618114615.3,286046994.1,P
1618114635.1,286046992.2,P
1618114655.9,286046994.5,N
1618114675.7,286046997.6,N
1618114695.5,286046997.2,N
1618114715.4,286046995.9,N
1618114735.2,286046993.4,N
1618114755.0,286046995.9,N
1618114755.9,286046995.9,N
1618114775.8,286046993.5,Y
1618114795.6,286047000.0,P
1618114815.5,286047002.0,N
1618114835.3,286047001.4,N
1618114855.1,286047004.1,N
1618114875.9,286047001.3,N
1618114895.7,286047000.8,N
1618114915.6,286046998.8,N
1618114935.4,286046999.5,N
1618114955.2,286046996.8,N
1618114975.1,286046997.8,N
1618114976.0,286046997.8,N
1618114995.8,286046997.4,N
1618115015.6,286046995.3,N
1618115035.5,286046995.9,N
1618115055.3,286046998.0,N
1618115075.2,286047001.0,N
1618115095.9,286047004.1,N
1618115115.7,286047001.6,N
1618115135.6,286046998.5,N
1618115155.4,286046999.3,N
1618115175.2,286046998.8,N
1618115195.1,286047000.1,N
1618115196.0,286047000.1,N
1618115215.8,286047000.9,N
1618115235.7,286047000.3,N
1618115255.5,286046999.9,N
1618115275.3,286047002.4,N
1618115295.2,286047001.9,N
1618115315.0,286047003.2,N
1618115315.9,286047003.2,N
1618115335.7,286047006.0,N
1618115355.6,286047006.0,N
1618115375.4,286047003.8,N
1618115395.3,286047002.3,N
1618115415.1,286047001.4,N
1618115416.0,286047001.4,N
1618115435.8,286047003.6,N
1618115455.7,286046998.2,N
1618115475.5,286047000.6,N
1618115495.3,286047000.2,N
1618115515.2,286047000.2,N
1618115535.0,286047000.1,N
1618115535.9,286047000.1,N
1618115555.8,286046998.6,N
1618115575.6,286047000.3,N
1618115595.4,286047002.2,N
1618115615.3,286046999.7,N
1618115635.1,286047000.2,N
1618115655.8,286046999.9,N
1618115675.7,286047000.4,N
1618115695.5,286046998.4,N
1618115715.4,286046999.4,N
1618115735.2,286047000.0,N
1618115755.0,286046999.7,N
1618115755.9,286046999.7,N
1618115775.8,286047001.2,N
1618115795.6,286046999.9,N
1618115815.4,286046999.7,N
1618115835.3,286046998.3,N
1618115855.1,286047000.6,N
1618115875.9,286047002.1,N
1618115895.7,286047002.5,N
1618115915.5,286047001.9,N
1618115935.4,286047002.1,N
1618115955.2,286047000.1,N
1618115975.0,286046998.1,N
1618115976.0,286046998.1,N
1618115995.8,286046998.4,N
1618116015.6,286046997.9,N
1618116035.5,286046995.9,Y
1618116055.3,286046993.5,P
1618116075.1,286046995.2,N
1618116095.9,286046997.6,N
1618116115.7,286046998.0,N
1618116135.6,286046997.5,N
1618116155.4,286046996.6,N
1618116175.2,286046999.3,N
1618116195.1,286046999.3,N
1618116196.0,286046999.3,N
1618116215.8,286046996.6,N
1618116235.7,286046997.0,N
1618116255.5,286046999.9,N
1618116275.3,286047002.4,N
1618116295.2,286047005.6,N
1618116315.9,286047001.7,N
1618116335.7,286047003.0,N
1618116355.6,286047002.9,N
1618116375.4,286047003.5,N
1618116395.2,286047004.0,N
1618116415.1,286047001.0,N
1618116416.0,286047001.0,N
1618116435.8,286047002.1,N
1618116455.7,286047002.8,N
1618116475.5,286047001.7,N
1618116495.3,286047001.7,N
1618116515.2,286047001.4,N
1618116535.0,286047001.9,N
1618116535.9,286047001.9,N
1618116555.8,286047001.2,N
1618116575.6,286046999.9,N
1618116595.4,286047002.6,N
1618116615.3,286047000.3,N
1618116635.1,286047002.4,N
1618116655.8,286047004.3,N
1618116675.7,286047000.3,N
1618116695.5,286047002.8,N
1618116715.4,286047001.5,N
1618116735.2,286047002.2,N
1618116755.0,286047004.0,N
1618116755.9,286047004.0,N
1618116775.8,286047003.8,N
1618116795.6,286047003.8,N
1618116815.4,286047001.7,N
1618116835.3,286047002.3,N
1618116855.1,286047004.4,Y
1618116875.9,286046999.9,P
1618116895.7,286047001.9,N
1618116915.6,286047002.2,N
1618116935.4,286046998.3,N
1618116955.2,286046999.7,N
1618116975.1,286046998.1,N
1618116976.0,286046998.1,N
1618116995.8,286047000.0,N
1618117015.6,286047002.8,N
1618117035.5,286047002.2,N
1618117055.3,286047000.0,N
1618117075.1,286046998.8,N
1618117095.9,286046999.1,N
1618117115.7,286047002.0,N
1618117135.6,286047000.9,N
1618117155.4,286046998.1,N
1618117175.2,286047000.7,N
1618117195.1,286046998.2,N
1618117196.0,286046998.2,N
